Regional Weather Roundup
Issued by NWS

Home | Current Version | Previous Version | Graphics & Text | Print | Product List | Glossary On
Versions: 1 2 3 4 5 6 7 8 9 10 11 12 13 14 15 16 17 18 19 20 21 22 23 24 25 26 27 28 29 30 31 32 33 34 35 36 37 38 39 40 41 42 43 44 45 46 47 48 49 50
000
ASUS43 KOAX 242010
RWRNE

WEATHER ROUNDUP FOR NEBRASKA
NATIONAL WEATHER SERVICE OMAHA NE
300 PM CDT SAT JUN 24 2017

NOTES: SATELLITE DATA IS BEING USED TO AUGMENT CLOUD COVER ABOVE
       12000 FEET.
       "FAIR" INDICATES FEW OR NO CLOUDS BELOW 12,000 FEET WITH NO
       SIGNIFICANT WEATHER AND/OR OBSTRUCTIONS TO VISIBILITY.

  * THESE STATIONS DO NOT REPORT WEATHER SUCH AS RAIN...SNOW OR FOG.

NEZ001>004-019>022-054>056-242100-
NEBRASKA PANHANDLE

CITY           SKY/WX    TMP DP  RH WIND       PRES   REMARKS
SCOTTSBLUFF    SUNNY     74  35  24 NW8       30.29F
ALLIANCE       MOSUNNY   75  34  22 NW8       30.28F
CHADRON        PTSUNNY   71  35  26 N10       30.29F
GORDON         MOCLDY    66  34  30 W3        30.31S
KIMBALL        MOSUNNY   69  40  34 SE5       30.33F
SIDNEY         MOSUNNY   75  34  22 NW5       30.31F
$$

NEZ057>060-069>072-079>082-242100-
SOUTHWEST NEBRASKA

CITY           SKY/WX    TMP DP  RH WIND       PRES   REMARKS
NORTH PLATTE   CLOUDY    72  40  31 SW14      30.27F
IMPERIAL       CLOUDY    70  40  33 S7        30.29S
LEXINGTON      CLOUDY    71  41  33 SW14G20   30.27F
MCCOOK         CLOUDY    74  44  34 S7        30.27F
OGALLALA       CLOUDY    75  32  20 CALM      30.28F
$$

NEZ005>010-023>029-035>040-094-242100-
NORTH CENTRAL NEBRASKA

CITY           SKY/WX    TMP DP  RH WIND       PRES   REMARKS
VALENTINE      MOSUNNY   77  26  15 NW17G29   30.23F
AINSWORTH      PTSUNNY   73  34  23 NW18G25   30.23F
BROKEN BOW     CLOUDY    78  36  21 W12       30.22F
O`NEILL        MOSUNNY   76  36  23 NW21G26   30.19F
ORD            MOSUNNY   77  32  19 NW16G25   30.20F
THEDFORD       CLOUDY    75  35  23 NW21G26   30.26S
$$

NEZ041-046>049-061>064-073>077-083>087-242100-
SOUTH CENTRAL NEBRASKA

CITY           SKY/WX    TMP DP  RH WIND       PRES   REMARKS
GRAND ISLAND   MOSUNNY   79  38  22 W17       30.22F
AURORA         PTSUNNY   76  40  26 W13G21    30.21F
HASTINGS       SUNNY     77  36  22 SW8G22    30.25F
HEBRON         CLOUDY    78  37  22 W9G18     30.24S
HOLDREGE       CLOUDY    71  40  31 SW9       30.27F
KEARNEY *      CLOUDY    75  37  25 SW20      30.25F
YORK           MOSUNNY   77  37  24 W13       30.21F
$$

NEZ011>018-030>034-042>045-242100-
NORTHEAST NEBRASKA

CITY           SKY/WX    TMP DP  RH WIND       PRES   REMARKS
NORFOLK        MOSUNNY   76  34  21 NW18G30   30.16F
ALBION         MOSUNNY   76  32  20 NW15G21   30.19S
BLAIR          PTSUNNY   78  38  23 W15G25    30.16S
FREMONT        MOSUNNY   80  39  23 NW23G29   30.16F
TEKAMAH        PTSUNNY   80  36  20 W22G30    30.13F
WAYNE          MOSUNNY   78  33  19 NW25G37   30.15S
$$

NEZ050>053-065>068-078-088>093-242100-
SOUTHEAST NEBRASKA

CITY           SKY/WX    TMP DP  RH WIND       PRES   REMARKS
LINCOLN        PTSUNNY   78  39  24 W13       30.20F
OMAHA EPPLEY   MOSUNNY   81  38  21 W21G30    30.14F
BEATRICE       MOSUNNY   78  40  25 W14G23    30.21F
FALLS CITY     SUNNY     77  43  29 NW16G22   30.19F
NEBRASKA CITY  MOSUNNY   77  45  32 NW12      30.19F
PLATTSMOUTH    MOSUNNY   76  37  24 W16G23    30.18S
$$

NEZ044-045-051>053-067-242100-
OMAHA AREA

CITY           SKY/WX    TMP DP  RH WIND       PRES   REMARKS
OMAHA EPPLEY   MOSUNNY   81  38  21 W21G30    30.14F
BLAIR          PTSUNNY   78  38  23 W15G25    30.16S
FREMONT        MOSUNNY   80  39  23 NW23G29   30.16F
MILLARD        MOSUNNY   80  42  25 NW17G24   30.16F
OFFUTT AFB     MOSUNNY   77  39  26 W15G24    30.15F
PLATTSMOUTH    MOSUNNY   76  37  24 W16G23    30.18S
WAHOO          FAIR      80  33  18 NW22      30.17S
$$




USA.gov is the U.S. government's official web portal to all federal, state and local government web resources and services.